Tracking 28126 objects as of 1-Oct-2023
HD Live streaming from Space Station
objects crossing your sky now

DELTA 1 DEB

Track DELTA 1 DEB now!
10-day predictions


NORAD ID: 12538
Int'l Code: 1976-077DT
Perigee: 1,503.3 km
Apogee: 1,822.1 km
Inclination: 102.8 °
Period: 119.4 minutes
Semi major axis: 8033 km
RCS: 0.0855 m2 (small)
Launch date: July 29, 1976
Source: United States (US)
Launch site: AIR FORCE WESTERN TEST RANGE (AFWTR)

Note: This is SATELLITE DEBRIS
Your satellite tracking list
Your tracking list is empty




NASA's NSSDC Master Catalog

Two Line Element Set (TLE):
1 12538U 76077DT  23273.18793642  .00000098  00000-0  15444-2 0  9990
2 12538 102.7835   9.5645 0198369 128.9988 309.2306 12.05670649912989
Source of the keplerian elements: AFSPC